Regional Weather Roundup
Issued by NWS

Home | Current Version | Previous Version | Text Only | Print | Product List | Glossary On
Versions: 1 2 3 4 5 6 7 8 9 10 11 12 13 14 15 16 17 18 19 20 21 22 23 24 25 26 27 28 29 30 31 32 33 34 35 36 37 38 39 40 41 42 43 44 45 46 47 48 49 50
000
ASUS44 KLUB 240901
RWRTX
WEST TEXAS WEATHER ROUNDUP
NATIONAL WEATHER SERVICE LUBBOCK TX
400 AM CDT FRI OCT 24 2014

NOTE: "FAIR" INDICATES FEW OR NO CLOUDS BELOW 12,000 FEET WITH NO
SIGNIFICANT WEATHER AND/OR OBSTRUCTIONS TO VISIBILITY.

TXZ004-006>008-010-012-014-016-OKZ002-241000-
TEXAS PANHANDLE/OKLAHOMA PANHANDLE

CITY           SKY/WX    TMP DP  RH WIND       PRES   REMARKS
AMARILLO       CLEAR     53  51  93 SW6       30.13S
BORGER         CLEAR     58  55  90 S5        30.10F
CANADIAN       CLEAR     58  57  97 CALM      30.08S FOG
DALHART        CLEAR     52  45  77 NW9       30.15S
DUMAS          CLEAR     50  49  95 W7        30.12S
GUYMON         CLEAR     52  50  93 SW5       30.09F
HEREFORD       CLEAR     50  47  88 S6        30.15F
PAMPA          CLEAR     56  55  97 S7        30.12S FOG
$$

TXZ026-029-035-045-048-241000-
SOUTHERN PANHANDLE/SOUTH PLAINS/ROLLING PLAINS

CITY           SKY/WX    TMP DP  RH WIND       PRES   REMARKS
CHILDRESS      CLEAR     61  60  97 SW5       30.09F FOG
LUBBOCK        FOG       54  53  97 W6        30.13F VSB 1/2
SNYDER         CLEAR     58  58  98 S6        30.14S FOG
$$

TXZ052-054-060>062-072-078-127-140-154-169-241000-
PERMIAN BASIN/CONCHO VALLEY/BIG COUNTRY/EDWARDS PLATEAU

CITY           SKY/WX    TMP DP  RH WIND       PRES   REMARKS
ABILENE        CLEAR     63  59  87 S3        30.11S
BIG SPRING     CLEAR     61  59  92 SE5       30.16S
JUNCTION       CLEAR     56  54  93 CALM      30.15R
MIDLAND        CLEAR     60  57  89 S7        30.14S
ODESSA         CLEAR     62  59  90 S7        30.15F FOG
SAN ANGELO     CLEAR     58  56  93 CALM      30.13S
SONORA         CLEAR     52  52 100 CALM      30.19S FOG
SWEETWATER     CLEAR     62  60  95 SW10      30.15F
WINK           CLEAR     61  32  33 SE7       30.12S
$$

TXZ055-058-074-075-080-082-241000-
FAR WEST/SOUTHWEST MOUNTAINS/TRANS PECOS

CITY           SKY/WX    TMP DP  RH WIND       PRES   REMARKS
ALPINE         CLEAR     57  54  91 SW8       30.28S
DRYDEN           N/A     63  61  93 N6        30.13S
EL PASO        CLEAR     62  53  72 CALM      30.19R
FORT STOCKTON  CLEAR     59  56  89 S5        30.15S
MARFA          CLEAR     50  48  93 NW8       30.27F
PECOS          CLEAR     56  55  94 CALM      30.12S
PRESIDIO       FAIR      67  59  75 MISG      30.15S
$$

TXZ014-016-019-021>030-083-241000
TEXAS TECH WEST TEXAS MESONET/TEXAS PANHANDLE/NORTHERN SOUTH PLAINS

CITY           SKY/WX    TMP DP  RH WIND       PRES   REMARKS
ABERNATHY 5ENE   N/A     54  53  96 SW3       30.15S
AMARILLO 9NNE    N/A     51  50  99 S2        30.12S
AMARILLO 7SSE    N/A     51  49  95 W7        30.14S
AMHERST 1NE      N/A     53  50  88 SW5       30.16S
BOOTLEG 11WNW    N/A     52  49  90 SW10      30.18F
CANADIAN 6E      N/A     58  57  96 E2        30.07F
CAPROCK CYN SP   N/A     64  60  86 SW8       30.10F
CHILDRESS 2NNE   N/A     62  60  93 S3        30.08S
CLARENDON 2WSW   N/A     54  52  93 S1        30.11S
CLAUDE 12SW      N/A     58  57  97 S2        30.12F
DIMMITT 2NE      N/A     54  49  82 SW6       30.15S
FLOYDADA 2NNE    N/A     52  51  98 SW3       30.14S
FRIONA 2NE       N/A     52  48  86 W6        30.17S
GOODLETT 3W      N/A     58  55  92 CALM      30.08R
HART 3N          N/A     51  49  92 W5        30.15F
HEREFORD 2NW     N/A     52  45  77 SW6       30.15F
MCLEAN 1E        N/A     56  55  97 S5        30.09S
MEMPHIS 1NE      N/A     56  55  96 SE1       30.09S
MULESHOE 2SSW    N/A     46  44  93 W5        30.16S
OLTON 6S         N/A     53  51  93 W7        30.15S
PALO DURO SP     N/A     55  51  86 SW6       30.13F
PAMPA 2E         N/A     54  53  98 S6        30.12S
PLAINVIEW 1S     N/A     55  55  99 W6        30.13F
SILVERTON 7ESE   N/A     59  57  93 SW10      30.12F
TULIA 2ENE       N/A     55  53  94 SW9       30.13F
TURKEY 2WSW      N/A     59  58  96 S6        30.09F
UMBARGER 3NNE    N/A     52  47  83 SW8       30.14F
$$

TXZ033>036-039>041-045>048-241000
TEXAS TECH WEST TEXAS MESONET/SOUTH PLAINS

CITY           SKY/WX    TMP DP  RH WIND       PRES   REMARKS
AIKEN 3WSW       N/A     53  53 100 W5        30.15S
ANDREWS 2NE      N/A     60  56  88 SW7       30.15S
ANTON 6SSW       N/A     53  51  95 W3        30.15S
BROWNFIELD 2S    N/A     57  54  89 SW12      30.14F
DENVR CTY 7WNW   N/A     56  54  93 SW8       30.16S
GAIL 2ESE        N/A     58  56  94 S5        30.13S
LAMESA 2SE       N/A     53  52  97 SW5       30.15S
LEVELLAND 4S     N/A     55  51  86 SW7       30.15S
LUBBOCK 3WNW     N/A     54  53  94 W2        30.14S
MORTON 1ENE      N/A     57  53  85 SW8       30.16S
ODONNELL 1N      N/A     56  54  93 S6        30.14F
PLAINS 3N        N/A     56  53  91 SW8       30.17S
RALLS 1SE        N/A     55  55  98 SW5       30.15S
REESE CENTER     N/A     53  52  95 W6        30.14S
SEMINOLE 2NNE    N/A     56  53  91 W6        30.15F
SLATON 2NE       N/A     56  55  94 W2        30.14R
SNYDER 3E        N/A     59  58  97 S8        30.13S
SUNDOWN 8SW      N/A     55  52  90 SW8       30.16S
TAHOKA 3NNE      N/A     57  55  94 SW6       30.14S
WOLFFORTH 6SSW   N/A     55  54  98 SW6       30.15S
$$

TXZ031-032-036>038-042>044-241000-
TEXAS TECH WEST TEXAS MESONET/ROLLING PLAINS

CITY           SKY/WX    TMP DP  RH WIND       PRES   REMARKS
ASPERMONT 3NE    N/A     62  59  91 S6        30.09S
FLUVANNA 3WNW    N/A     59  57  92 S6        30.13S
GRAHAM 5SSW      N/A     59  56  90 SW7       30.13S
GUTHRIE 10WSW    N/A     61  58  92 SW7       30.09S
HASKELL 1NW      N/A     62  57  83 S6        30.08F
JAYTON 1SSE      N/A     59  58  95 SW3       30.10F
KNOX CITY 3NW    N/A     60  56  88 S6        30.09S
LK A HENRY 1NW   N/A     62  60  93 SW5       30.10F
NORTHFIELD 1S    N/A     59  58  97 SW3       30.09S
ODELL 4ENE       N/A     60  58  92 SE5       30.08F
PADUCAH 10SW     N/A     61  59  94 SW10      30.08S
POST 1NE         N/A     60  57  92 E2        30.12S
RRING SPRGS 3N   N/A     58  58  98 SW9       30.10F
SEYMOUR 3NW      N/A     61  57  86 SW1       30.08S
SPUR 1W          N/A     54  53  96 W3        30.10F
WEINERT 2NNE     N/A     60  57  91 S5        30.09S
WHITE RVR 6NE    N/A     56  56  97 CALM      30.13R
$$

TXZ052-054-060>062-072-078-127-140-154-169-241000-
TEXAS TECH WEST TEXAS MESONET/PERMIAN BASIN/
CONCHO VALLEY/BIG COUNTRY/EDWARDS PLATEAU

CITY           SKY/WX    TMP DP  RH WIND       PRES   REMARKS
COYANOSA 2N      N/A     59  58  97 E6        30.13S
JUNCTION 1SSW    N/A     56  55  98 SE1       30.15S
MERTZON 3NNE     N/A     60  59  96 S7        30.14F
SAN ANGELO 7NW   N/A     56  53  91 S1        30.13F
STRLNG CT 4WSW   N/A     62  60  93 S3        30.14S
ST LAWRNCE 5SW   N/A     57  56  98 S5        30.15S
SWEETWATR 11SW   N/A     59  58  97 SW5       30.14F
WALL 1E          N/A     58  55  89 W1        30.13F
$$

TXZ055-058-074-075-080-082-241000-
TEXAS TECH WEST TEXAS MESONET/FAR WEST/SOUTHWEST MOUNTAINS/TRANS PECOS

CITY           SKY/WX    TMP DP  RH WIND       PRES   REMARKS
PRSMN GAP BBNP   N/A     64  61  91 N5        30.16F
GUADLPE MTN NP   N/A     61  41  46 W8        30.27F
$$



USA.gov is the U.S. government's official web portal to all federal, state and local government web resources and services.